Regional Weather Roundup
Issued by NWS

Home | Current Version | Previous Version | Text Only | Print | Product List | Glossary Off
Versions: 1 2 3 4 5 6 7 8 9 10 11 12 13 14 15 16 17 18 19 20 21 22 23 24 25 26 27 28 29 30 31 32 33 34 35 36 37 38 39 40 41 42 43 44 45 46 47 48 49 50

000
ASUS44 KMEG 190410
RWRTN
TENNESSEE HOURLY STATE WEATHER ROUNDUP
NATIONAL WEATHER SERVICE MEMPHIS TN
1000 PM CST SAT NOV 18 2017

TNZ002-004-019-021-049-052-054-088>092-190500-
WEST TENNESSEE

CITY           SKY/WX    TMP DP  RH WIND       PRES   REMARKS
MEMPHIS INTL   CLEAR     47  37  68 NW9       30.06R
NWS MEMPHIS      N/A     47 N/A N/A MISG        N/A
JACKSON        PTCLDY    47  40  76 NW14      30.03R
DYERSBURG      CLEAR     46  35  65 NW8       30.05R
COVINGTON      CLEAR     45  37  76 NW8       30.06R
UNION CITY     CLEAR     45  36  70 NW10      30.01R
BOLIVAR        PTCLDY    46  39  76 W7G13     30.02R
PARIS          CLOUDY    45  37  76 NW8G14    29.97
HUNTINGDON     CLOUDY    46  39  76 NW7G18    29.99R
LEXINGTON      CLOUDY    46  39  76 NW9G20    29.99R
SELMER         CLOUDY    48  39  71 NW8G22    29.99R
SAVANNAH       CLOUDY    48  39  71 NW10      29.99R
$$

TNZ008-025-027-028-033-062-065-066-190500-
NORTH MIDDLE TENNESSEE

CITY           SKY/WX    TMP DP  RH WIND       PRES   REMARKS
NASHVILLE      CLOUDY    44  37  76 NW14G21   29.94R
PORTLAND       CLOUDY    41  37  87 NW14G22   29.91R
CLARKSVILLE    CLOUDY    45  37  73 NW16G23   29.94R
SMYRNA         CLOUDY    44  38  79 NW16G28   29.95R
COOKEVILLE     CLOUDY    43  41  93 NW8G18    29.85R
GALLATIN       CLOUDY    43  37  81 NW13G20   29.95R
CROSSVILLE     CLOUDY    41  38  89 W20G36    29.79R
$$

TNZ061-075-076-078-094-096-097-190500-
SOUTH MIDDLE TENNESSEE

CITY           SKY/WX    TMP DP  RH WIND       PRES   REMARKS
FAYETTEVILLE   CLOUDY    46  39  76 NW17G29   29.90R
TULLAHOMA      CLOUDY    45  41  87 NW20      29.89R
WINCHESTER     CLOUDY    45  41  87 NW15      29.89R
MCMINNVILLE    CLOUDY    43  39  87 VRB6G18   29.88R
COLUMBIA       CLOUDY    46  37  71 NW13G21   29.94R
SHELBYVILLE    CLOUDY    45  39  81 NW18G29   29.93R
$$

TNZ017-018-042-046-047-190500-
NORTHEAST TENNESSEE

CITY           SKY/WX    TMP DP  RH WIND       PRES   REMARKS
TRI CITIES     LGT RAIN  58  56  93 SW17      29.57R
ELIZABETHTON   MOCLDY    59  55  88 W8G16     29.56R FOG
$$

TNZ012-013-036-069-073-074-190500-
CENTRAL EAST TENNESSEE

CITY           SKY/WX    TMP DP  RH WIND       PRES   REMARKS
KNOXVILLE      LGT RAIN  51  49  92 W21G31    29.72R
OAK RIDGE      CLOUDY    50  43  77 W14G22    29.73R
DOWNTOWN KNOXV CLOUDY    54  46  76 W16G28    29.71R
GATLINBURG     CLOUDY    55  52  88 W13G30    29.68R
MORRISTOWN     CLOUDY    54  50  87 NW20G29   29.66R
$$

TNZ083-085-099-190500-
SOUTHEAST TENNESSEE

CITY           SKY/WX    TMP DP  RH WIND       PRES   REMARKS
CHATTANOOGA    CLOUDY    52  45  77 NW14G23   29.82R
$$

SKY/WX REPORTED AS FAIR MEANS FEW OR NO CLOUDS BELOW
12 THOUSAND FEET.





USA.gov is the U.S. government's official web portal to all federal, state and local government web resources and services.